Wichita, KS

11:25 PM CST on December 14, 2017 (GMT -0600)
Wichita Eisenhower National Airport

Weather History for KICT - November, 2013

Change the Weather History Date:

Monday, November 25, 2013

  Actual Average Record
Temperature  
Mean Temperature 32 °F 41 °F  
Max Temperature 37 °F 51 °F 74 °F (1910)
Min Temperature 26 °F 30 °F 11 °F (1993)
Degree Days  
Heating Degree Days 33 24  
Month to date heating degree days 484 459  
Since 1 July heating degree days 738 745  
Cooling Degree Days 0 0  
Month to date cooling degree days 0 0  
Year to date cooling degree days 1778 1684  
Moisture  
Dew Point 23 °F    
Average Humidity 71    
Maximum Humidity 85    
Minimum Humidity 57    
Precipitation  
Precipitation 0.00 in 0.04 in 1.82 in (1940)
Month to date precipitation 0.60 1.22  
Year to date precipitation 39.85 31.23  
Snow  
Snow 0.00 in 0.10 in 6.80 in (1952)
Month to date snowfall T 0.9  
Since 1 July snowfall T 1.0  
Since 1 September snowfall T 1.0  
Snow Depth 0.00 in    
Sea Level Pressure  
Sea Level Pressure 30.24 in    
Wind  
Wind Speed 7 mph (SW)    
Max Wind Speed 14 mph    
Max Gust Speed 16 mph    
Visibility 10 miles    
Events      
T = Trace of Precipitation, MM = Missing Value Source: NWS Daily Summary

Daily Weather History Graph

Daily Weather History Graph

Search for Another Location

Airport or City:

Trip Planner

Search our weather history database for the weather conditions in past years. The results will help you decide how hot, cold, wet, or windy it might be!

Date:

Astronomy

Nov. 25, 2013 Rise Set
Actual Time 7:20 AM CST 5:13 PM CST
Civil Twilight 6:51 AM CST 5:41 PM CST
Nautical Twilight 6:19 AM CST 6:13 PM CST
Astronomical Twilight 5:48 AM CST 6:45 PM CST
Moon No Moon Rise 12:42 PM CST (11/25)
Length of Visible Light 10h 49m
Length of Day
9h 52m
Waning Gibbous, 51% of the Moon is Illuminated
Nov 25
Waning Gibbous
Nov 25
Last Quarter
Dec 2
New
Dec 9
First Quarter
Dec 17
Full

Hourly Weather History & Observations

Time (CST) Temp. Windchill Dew Point Humidity Pressure Visibility Wind Dir Wind Speed Gust Speed Precip Events Conditions
12:53 AM 27.0 °F 17.3 °F 15.1 °F 61% 30.31 in 10.0 mi South 10.4 mph - N/A   Overcast
1:53 AM 27.0 °F 18.0 °F 15.1 °F 61% 30.29 in 10.0 mi South 9.2 mph - N/A   Overcast
2:53 AM 28.0 °F 19.3 °F 16.0 °F 61% 30.28 in 10.0 mi SSE 9.2 mph - N/A   Overcast
3:53 AM 28.0 °F 18.6 °F 16.0 °F 61% 30.25 in 10.0 mi SSE 10.4 mph - N/A   Overcast
4:53 AM 28.0 °F 17.5 °F 17.1 °F 63% 30.25 in 10.0 mi South 12.7 mph - N/A   Overcast
5:53 AM 28.0 °F 18.1 °F 18.0 °F 66% 30.25 in 10.0 mi South 11.5 mph - N/A   Overcast
6:53 AM 28.0 °F 18.6 °F 19.0 °F 69% 30.25 in 10.0 mi South 10.4 mph - N/A   Overcast
7:53 AM 28.0 °F 19.3 °F 19.0 °F 69% 30.25 in 10.0 mi South 9.2 mph - N/A   Overcast
8:53 AM 28.9 °F 19.8 °F 21.0 °F 72% 30.26 in 10.0 mi South 10.4 mph - N/A   Overcast
9:53 AM 30.9 °F 24.3 °F 21.9 °F 69% 30.27 in 10.0 mi South 6.9 mph - N/A   Overcast
10:53 AM 30.9 °F 22.2 °F 23.0 °F 72% 30.28 in 10.0 mi SSW 10.4 mph - N/A   Overcast
11:53 AM 32.0 °F 24.2 °F 24.1 °F 73% 30.26 in 10.0 mi SSW 9.2 mph - N/A   Overcast
12:28 PM 33.8 °F 27.7 °F 24.8 °F 70% 30.20 in 10.0 mi SSW 6.9 mph - N/A   Overcast
12:53 PM 33.1 °F 27.7 °F 25.0 °F 72% 30.24 in 10.0 mi SW 5.8 mph - N/A   Overcast
1:49 PM 33.8 °F - 26.6 °F 75% 30.18 in 10.0 mi Calm Calm - N/A   Overcast
1:53 PM 35.1 °F 30.1 °F 26.1 °F 70% 30.22 in 10.0 mi WSW 5.8 mph - N/A   Overcast
2:15 PM 33.8 °F 28.6 °F 26.6 °F 75% 30.18 in 10.0 mi West 5.8 mph - N/A   Overcast
2:53 PM 35.1 °F 31.0 °F 26.1 °F 70% 30.21 in 10.0 mi NW 4.6 mph - N/A   Overcast
3:53 PM 36.0 °F 33.3 °F 26.1 °F 67% 30.22 in 10.0 mi NW 3.5 mph - N/A   Mostly Cloudy
4:33 PM 37.4 °F 30.8 °F 26.6 °F 65% 30.19 in 10.0 mi NW 9.2 mph - N/A   Overcast
4:53 PM 37.0 °F 31.6 °F 26.1 °F 65% 30.23 in 10.0 mi WNW 6.9 mph - N/A   Overcast
5:53 PM 35.1 °F - 26.1 °F 70% 30.24 in 10.0 mi Calm Calm - N/A   Mostly Cloudy
6:23 PM 35.6 °F 32.8 °F 24.8 °F 65% 30.20 in 10.0 mi NW 3.5 mph - N/A   Scattered Clouds
6:53 PM 32.0 °F 27.5 °F 24.1 °F 73% 30.25 in 10.0 mi NW 4.6 mph - N/A   Scattered Clouds
7:53 PM 30.9 °F - 24.1 °F 76% 30.25 in 10.0 mi Calm Calm - N/A   Scattered Clouds
8:53 PM 28.0 °F - 24.1 °F 85% 30.26 in 10.0 mi Calm Calm - N/A   Partly Cloudy
9:53 PM 26.1 °F 19.4 °F 21.9 °F 84% 30.26 in 9.0 mi NW 5.8 mph - N/A   Partly Cloudy
10:53 PM 28.0 °F 21.7 °F 24.1 °F 85% 30.25 in 9.0 mi NW 5.8 mph - N/A   Clear
11:53 PM 28.0 °F 19.3 °F 24.1 °F 85% 30.25 in 10.0 mi NNW 9.2 mph - N/A   Clear